Location: 22
(39.7117°N, 89.5929°W)
Time: 08:47:22
(UTC-05:00)

Transit 2A - Pass Details

Date: 05 August 2024
Orbit: 590 x 961 km, 66.7° (Epoch: 13 September)

Event Time Altitude Azimuth Distance (km) Brightness Sun altitude
Rises 04:49:37 0° 194° (SSW) 3,149 - -13.0°
Exits shadow 04:51:27 - 192° (SSW) 2,455 8.2 -12.7°
Reaches altitude 10° 04:51:54 10° 190° (S) 2,287 8.0 -12.6°
Maximum altitude 04:57:03 56° 113° (ESE) 968 6.7 -11.8°
Drops below altitude 10° 05:02:48 10° 37° (NE) 2,545 10.0 -10.9°
Sets 05:05:27 0° 33° (NNE) 3,537 10.8 -10.4°
